Wind_Speed
54 53 51 50 52 55 55 53 52 51 50 50 50 51 51 52 53 55 55 56 57 58 58 59 59 58 58 58 57 57 57 57 57 57 58 59 59 60 60 61 60 59 59 59 59 59 59 59 60 60 61 62 62 64 64 65 66 67 68 70 70 70 71 73 73 73 73 73 75 77 78 78 78 79 79 79 79 79 80 81 82 83 84 84 84 84 84 82
55 53 53 52 51 53 54 54 52 53 52 51 50 50 50 50 50 51 53 54 56 58 59 60 61 62 62 62 61 61 61 62 62 62 62 63 64 64 65 66 66 66 65 65 64 65 65 66 66 67 68 68 69 69 69 69 69 70 70 71 71 71 73 75 74 75 75 76 77 78 79 79 80 80 82 82 81 81 82 82 82 83 83 83 84 84 83 81
55 54 53 52 52 52 53 53 52 52 53 53 52 51 51 51 51 50 50 51 53 54 56 57 59 61 62 64 65 65 66 66 67 67 66 66 66 67 68 69 69 70 70 70 69 69 70 70 70 71 71 72 72 73 73 73 72 73 73 73 73 73 75 76 76 76 76 77 79 80 80 81 82 83 84 84 83 83 83 82 82 82 82 82 82 81 80 78
54 54 53 52 52 52 52 53 53 52 52 53 53 53 53 53 53 52 52 52 52 52 53 54 56 57 58 61 63 65 66 67 69 70 70 70 70 70 70 70 71 72 73 74 74 74 74 74 74 74 75 75 75 75 75 75 74 74 76 76 76 76 77 78 78 78 78 79 81 82 83 83 84 84 85 85 85 85 84 83 82 82 81 80 79 77 76 74
51 53 53 53 52 52 52 52 53 53 52 53 54 54 54 54 54 54 54 54 54 54 54 55 56 56 57 58 59 60 62 63 65 67 69 71 72 72 72 72 72 73 74 75 76 77 77 77 77 77 77 78 78 78 78 78 77 78 79 80 80 80 81 82 83 82 82 82 83 84 86 86 86 86 87 87 86 86 85 83 82 80 79 77 74 72 70 69
48 50 52 52 53 52 52 52 52 53 53 53 53 54 55 55 55 56 56 56 57 57 57 57 58 59 59 60 61 61 62 63 64 65 66 68 70 71 72 73 73 74 74 74 75 76 77 78 78 78 79 79 80 80 80 80 80 81 83 83 83 84 84 85 86 86 85 85 85 86 87 88 88 88 89 88 87 85 83 81 80 77 75 71 68 66 66 67
44 47 49 51 52 53 53 53 53 53 53 53 54 54 55 56 56 57 58 58 58 59 59 60 61 62 62 63 64 65 66 66 67 68 68 69 70 71 72 73 74 75 75 75 76 76 77 78 78 79 79 80 81 82 82 82 83 83 85 85 86 86 87 87 88 89 88 88 88 88 89 89 88 89 89 88 85 82 80 77 75 73 69 65 63 64 66 68
38 41 45 47 50 51 52 53 53 53 54 54 54 55 56 56 57 57 58 59 60 61 61 62 63 64 65 66 67 68 69 70 71 72 73 74 74 75 76 76 77 77 78 78 79 80 80 80 81 81 81 82 83 84 84 84 85 86 87 88 89 89 90 90 91 92 92 91 91 90 90 88 87 86 86 84 80 78 75 72 69 67 64 61 62 64 67 70
32 35 38 42 44 47 49 51 52 53 54 55 55 56 56 57 58 58 59 60 61 62 63 65 66 67 68 70 70 72 73 74 75 76 77 78 79 80 80 81 81 82 82 82 83 83 84 84 85 85 85 86 86 87 87 88 88 89 90 91 92 92 93 93 93 93 93 92 90 88 86 84 82 80 80 78 74 73 71 68 65 62 60 60 62 65 68 71
27 29 32 35 38 41 43 46 48 51 52 54 55 56 57 58 58 59 60 61 62 63 65 66 68 69 71 72 73 74 76 77 78 80 81 82 82 83 84 85 85 86 86 87 87 87 88 88 89 89 89 90 90 91 91 91 92 92 93 93 93 93 93 93 93 91 89 87 85 82 78 76 75 74 74 72 69 68 67 64 61 59 58 60 63 66 69 71
24 26 28 30 32 34 37 39 41 44 46 48 50 52 54 56 57 59 60 61 63 64 65 67 69 70 72 73 75 76 78 79 81 82 83 84 85 86 87 88 88 89 89 90 90 90 91 91 92 92 92 93 93 92 92 92 91 92 92 91 91 89 88 89 87 84 81 79 77 73 70 69 70 70 70 69 66 65 63 60 58 58 60 63 66 69 71 72
24 25 27 28 30 31 33 34 36 38 40 42 44 46 48 50 52 54 56 57 59 61 62 64 66 68 70 71 73 75 77 78 80 82 83 84 85 86 88 88 89 89 89 90 90 90 90 91 91 91 91 91 91 90 89 89 87 87 86 85 85 82 80 81 79 77 74 72 69 66 63 65 68 68 68 66 63 62 61 59 58 60 63 66 69 71 73 72
24 25 27 28 29 31 32 33 34 35 36 38 39 41 43 44 46 48 50 51 53 55 57 59 61 63 65 67 69 70 72 74 76 77 78 80 81 82 84 84 85 85 85 85 86 86 86 86 86 85 86 85 85 84 83 82 81 80 80 78 77 75 73 73 72 71 69 66 65 62 60 62 67 67 64 62 61 60 58 58 60 62 65 67 69 71 73 73
23 25 26 27 28 29 30 31 32 33 34 35 36 38 39 41 42 44 45 47 48 50 52 54 56 58 60 61 63 65 67 69 70 71 73 74 75 76 77 78 78 78 79 79 79 79 79 79 78 78 78 78 78 77 76 75 75 74 73 72 70 68 68 68 67 67 66 63 62 60 56 57 63 64 61 60 59 58 57 60 63 65 66 67 69 71 73 74
22 23 25 26 27 27 28 29 29 30 30 31 33 34 35 36 37 39 40 42 43 45 48 50 52 53 55 57 59 60 62 63 64 66 67 68 69 70 70 71 71 71 72 72 72 72 72 72 72 72 72 72 71 71 70 70 70 69 68 67 66 64 64 65 65 65 63 60 59 57 52 52 60 62 59 59 58 57 59 63 66 66 68 69 71 73 75 77
20 21 22 23 23 24 24 25 25 25 26 27 28 29 30 32 33 35 36 38 40 42 45 47 48 50 52 53 55 57 58 59 60 61 62 63 64 64 64 64 64 65 66 66 66 66 66 66 67 67 67 67 66 66 66 66 67 66 64 64 64 62 62 62 64 63 60 57 55 53 49 50 57 59 60 60 57 57 61 66 68 69 71 73 74 75 76 78
18 18 18 18 19 19 20 21 21 22 23 24 26 28 29 31 32 34 35 37 39 41 44 45 47 48 50 51 53 54 55 56 57 58 59 60 60 61 61 61 61 61 61 61 62 62 63 63 63 64 64 64 63 63 63 64 64 64 63 62 62 61 60 60 61 60 56 53 51 50 49 51 56 59 63 62 59 60 64 67 69 71 73 75 76 77 78 79
15 15 15 16 17 18 19 20 21 22 23 25 27 28 30 31 32 33 35 36 39 41 43 45 46 48 48 50 51 52 53 55 55 56 57 58 58 58 59 59 58 58 58 58 59 60 61 61 62 63 62 62 62 62 62 63 63 63 62 61 60 60 59 59 57 54 51 49 49 51 50 53 58 62 65 65 64 65 67 69 71 72 75 77 78 79 80 81
15 15 15 16 17 18 19 20 21 23 24 26 26 28 29 31 31 33 35 37 39 41 43 44 46 47 47 48 49 50 52 53 53 54 54 55 55 54 54 54 54 54 53 54 55 57 58 59 61 61 61 61 61 61 61 62 62 62 61 60 59 57 56 57 53 50 49 49 50 54 54 56 61 64 67 67 68 68 69 71 73 74 76 78 79 80 81 82
16 16 17 18 18 19 20 21 23 24 26 27 28 29 30 31 32 33 36 39 41 42 44 45 45 46 47 47 48 49 50 51 51 51 52 51 50 50 49 49 49 49 49 50 51 53 55 57 59 59 59 60 60 60 60 60 60 60 59 58 56 54 53 54 52 51 51 51 53 57 59 62 65 65 66 68 69 69 70 73 75 76 78 79 81 82 83 85
19 19 20 20 21 21 22 23 24 26 28 29 31 32 32 33 34 36 38 40 43 44 45 45 45 46 47 47 47 48 49 50 49 50 49 47 46 46 45 45 45 45 46 47 48 50 52 54 56 56 56 57 57 57 58 58 57 57 56 53 52 51 50 51 52 53 53 53 56 59 61 63 63 63 65 68 70 71 73 75 77 78 79 81 82 84 86 88
22 22 23 23 24 24 24 25 27 29 31 32 33 35 35 36 38 40 41 42 44 46 46 46 47 48 48 47 48 48 49 49 48 48 47 44 43 43 42 42 42 43 43 44 46 48 50 51 52 52 53 54 54 55 54 54 54 53 52 50 50 51 50 51 53 54 55 56 57 59 60 62 63 64 67 70 72 74 76 77 79 80 81 83 84 86 88 89
25 25 26 26 26 26 27 28 30 32 33 34 36 37 38 39 40 42 43 44 45 47 47 48 48 49 49 49 48 49 49 49 47 46 44 43 41 41 41 41 41 42 42 42 44 46 48 49 49 49 51 51 51 51 50 49 50 50 50 50 51 53 53 53 54 55 56 58 59 61 64 66 67 68 70 73 75 77 78 80 82 83 84 86 87 89 90 92
27 28 29 29 29 29 30 32 33 34 35 37 38 39 40 41 42 44 45 46 47 48 48 49 49 49 49 49 49 49 49 48 46 43 42 42 41 40 40 41 41 41 41 42 43 44 46 46 47 48 48 49 48 48 47 47 49 51 52 52 52 53 53 53 54 56 58 60 62 65 68 69 70 71 73 75 77 79 81 83 85 86 87 88 89 91 93 95
30 31 32 32 32 32 33 34 35 36 37 38 39 40 41 42 43 45 46 48 48 49 49 50 50 49 50 50 49 49 48 46 44 42 40 40 40 40 41 41 41 41 41 42 43 44 45 46 46 47 47 48 48 49 49 50 51 53 54 53 52 53 53 54 55 57 60 62 65 69 72 73 73 74 76 78 80 82 84 86 87 88 89 91 93 95 96 96
32 33 34 34 35 36 36 36 37 38 39 40 40 41 41 43 44 45 48 49 49 50 50 50 50 50 50 50 50 48 46 44 41 40 39 39 39 39 40 41 41 41 42 43 44 45 46 47 47 48 48 49 50 51 52 53 53 54 55 55 54 55 56 58 60 62 64 66 70 73 75 76 77 78 79 81 83 84 86 87 88 90 92 94 96 96 95 95
33 34 35 36 37 38 38 38 39 40 41 40 40 40 41 43 45 47 49 50 50 50 50 50 50 50 50 50 49 46 43 41 39 38 38 38 38 38 39 41 41 41 42 43 45 46 47 48 49 49 50 51 52 53 54 55 55 55 57 58 59 60 61 63 65 67 69 70 73 76 77 78 80 81 82 83 84 85 87 89 91 94 95 95 95 94 93 92
33 35 36 37 37 38 38 39 40 41 40 39 39 40 42 45 47 48 49 51 51 51 50 50 50 50 50 48 46 43 40 38 37 37 37 37 37 37 38 39 40 41 42 43 45 46 47 49 50 51 52 53 54 55 57 58 58 59 61 62 63 65 67 68 70 72 73 74 76 77 78 80 81 82 84 84 85 88 90 92 94 94 94 93 92 90 89 87
32 34 35 36 37 38 39 40 40 39 38 38 40 43 45 46 48 49 50 51 51 51 51 51 51 51 49 46 43 40 38 37 36 36 36 36 36 36 37 38 38 39 41 42 44 46 47 49 50 51 53 54 55 57 59 60 61 63 64 66 67 68 70 71 72 73 74 75 76 78 79 81 83 84 86 88 89 90 92 92 93 92 91 89 87 86 86 86
31 33 35 36 37 39 39 38 38 37 38 41 43 45 46 47 48 50 51 51 51 51 51 51 51 50 47 43 40 37 36 35 35 35 35 35 35 36 36 37 38 38 39 41 42 44 46 48 49 51 52 54 56 57 59 61 62 64 66 67 69 70 71 72 73 73 74 76 78 80 82 84 86 86 87 88 88 89 89 89 89 87 86 85 84 85 86 87
31 32 33 35 36 37 36 36 37 39 41 43 45 46 47 48 49 50 51 52 52 52 51 51 50 48 44 40 37 35 34 33 33 33 34 34 34 35 37 38 39 39 40 40 41 43 44 46 48 49 51 53 55 57 58 60 62 64 66 67 69 71 71 73 74 75 77 79 81 83 84 86 86 85 85 85 84 84 84 84 84 84 84 84 84 85 86 87
31 31 32 34 34 35 35 37 39 41 44 45 46 47 48 49 50 51 51 52 52 52 51 49 47 44 40 37 35 34 33 32 31 32 33 33 34 35 37 38 39 40 41 41 42 43 44 45 46 48 50 51 53 55 56 58 60 62 65 66 68 70 71 73 75 77 79 80 81 83 83 83 82 81 80 79 79 79 81 82 83 83 83 83 83 84 85 86
34 34 35 35 36 37 38 40 42 43 45 46 48 49 50 51 51 51 51 52 52 52 50 47 43 40 38 35 34 33 32 31 31 32 33 34 35 36 38 39 40 40 41 42 43 44 45 46 47 48 49 51 52 53 54 56 57 60 62 64 66 67 69 71 72 74 76 77 77 78 78 78 78 77 77 77 77 78 80 81 81 81 81 82 82 83 84 85
38 38 38 38 38 39 40 42 43 44 46 47 49 50 51 52 52 52 52 52 51 49 47 43 39 37 35 34 32 32 32 32 32 33 35 36 37 38 39 40 41 42 42 43 43 45 46 48 49 50 51 52 53 53 54 56 57 58 60 62 63 65 66 67 68 69 71 72 74 75 76 77 76 76 76 76 77 78 80 80 81 81 81 82 82 83 83 84
39 40 39 40 40 41 42 43 44 45 47 49 50 51 52 53 53 53 52 51 49 45 42 39 36 34 33 32 31 32 32 34 35 35 37 38 38 40 41 41 42 43 44 45 45 46 47 50 52 52 53 54 54 55 56 57 58 59 60 62 63 65 66 67 68 69 69 70 72 74 75 76 76 75 75 75 77 78 79 80 81 81 81 82 82 82 82 83
39 40 40 40 41 41 42 44 45 47 49 50 52 52 53 53 53 53 52 49 46 41 37 35 34 32 32 32 32 33 34 35 37 37 38 39 40 41 42 43 44 44 45 46 47 48 49 51 54 54 55 55 55 56 57 58 59 60 61 62 64 65 66 67 68 69 69 70 71 73 73 74 75 74 74 75 77 78 79 80 80 81 81 82 81 81 80 80
41 41 41 41 41 42 43 45 47 49 50 51 52 53 53 53 52 51 49 45 41 38 35 33 32 32 32 33 33 34 36 37 38 39 40 41 42 42 43 44 45 46 48 48 49 50 50 52 56 56 56 57 57 57 58 59 60 61 62 63 64 65 66 67 68 69 69 70 71 72 72 72 73 73 73 75 76 77 78 79 80 80 80 80 79 79 79 79
41 41 41 41 42 43 45 47 49 51 52 53 53 53 53 53 51 48 44 40 37 35 34 33 33 33 34 36 37 37 38 39 40 40 41 42 43 44 45 46 48 48 50 51 52 52 51 53 56 58 57 57 58 58 58 59 60 61 62 63 64 65 66 67 67 68 68 69 70 71 71 71 72 73 74 75 76 76 77 78 78 78 78 78 78 79 80 81
41 41 41 42 44 45 48 49 51 52 53 53 53 53 52 50 46 42 38 36 34 33 33 33 34 35 36 38 39 40 41 42 42 43 44 44 45 46 47 48 49 50 51 53 53 54 53 53 56 58 57 57 57 57 57 58 59 60 61 63 65 66 67 68 68 68 69 69 70 71 71 71 72 73 73 73 74 74 74 75 76 77 78 79 80 82 84 86
42 42 43 45 46 48 50 51 52 53 53 53 53 52 49 45 40 37 35 33 32 33 34 35 36 37 38 39 40 41 43 44 45 46 46 47 48 49 50 50 51 52 53 54 54 55 54 54 55 57 56 55 55 56 56 57 59 61 63 64 66 66 67 67 67 67 68 68 68 69 69 68 69 70 71 71 72 73 74 76 78 79 81 82 84 86 88 90
44 45 46 48 49 50 51 52 53 53 53 53 51 47 43 39 36 34 33 33 34 35 36 37 38 39 40 41 42 43 45 46 47 48 49 50 50 51 52 52 53 53 54 54 55 55 54 54 54 56 56 56 56 57 58 59 60 62 63 64 64 64 64 63 63 63 64 65 65 66 65 65 66 68 70 72 73 75 77 79 82 84 85 87 89 91 93 95
47 48 49 50 51 52 52 53 53 53 52 50 45 41 37 35 34 34 34 35 36 37 37 38 39 40 42 43 44 45 46 48 49 49 50 51 52 52 53 53 54 54 54 55 55 55 54 54 55 56 56 56 57 58 59 59 60 60 60 61 60 60 59 59 58 59 60 62 64 65 65 65 67 70 72 74 77 79 81 84 86 88 90 91 93 96 98 101
49 50 51 52 52 52 52 52 52 51 48 43 39 36 34 34 34 35 36 37 37 38 39 40 41 42 43 45 46 47 48 49 49 50 51 52 52 53 53 54 54 54 54 54 55 55 54 54 55 56 57 56 56 56 57 57 57 56 56 57 56 56 56 56 57 58 60 63 65 67 68 69 72 74 76 79 81 83 86 88 91 93 95 96 98 101 103 105
50 51 51 52 52 52 52 51 48 45 40 37 36 35 35 35 36 37 38 39 40 40 42 43 44 44 45 46 47 48 49 50 50 51 52 52 53 53 53 53 53 53 52 53 53 52 52 52 53 54 55 54 54 53 53 54 54 53 53 55 56 56 57 58 59 61 64 66 68 70 72 74 76 78 81 83 86 88 91 93 96 97 99 100 102 104 106 108
51 51 51 52 52 51 49 45 41 38 36 36 36 36 37 37 38 38 39 41 42 43 44 45 45 46 47 48 49 49 50 50 51 51 51 51 51 51 50 50 50 49 49 49 50 50 50 50 49 50 50 50 50 50 50 51 52 52 53 55 56 58 59 61 62 65 67 69 72 74 75 78 81 83 86 88 90 92 95 98 100 102 103 104 106 109 111 113
50 51 51 51 49 46 42 39 37 37 36 37 37 37 38 39 40 40 41 42 43 44 45 46 47 48 48 49 50 50 50 50 50 49 49 48 48 47 47 47 47 47 47 47 47 47 47 47 47 47 46 47 48 49 50 51 52 53 55 57 58 60 62 64 66 69 71 73 76 78 79 82 84 87 89 92 94 96 99 101 104 107 109 111 113 115 117 120
49 50 49 46 43 40 39 38 37 37 38 38 39 39 40 41 42 43 43 44 45 46 46 47 48 49 49 49 49 49 49 48 47 47 46 46 45 45 45 45 44 44 44 45 44 45 46 46 46 46 46 46 48 50 51 52 54 56 58 60 61 63 65 68 70 72 74 77 79 82 83 85 87 90 93 95 98 100 103 105 108 110 113 115 117 119 121 123
48 47 45 42 40 39 38 38 38 39 39 40 40 41 42 43 43 44 45 45 46 47 47 48 48 48 48 48 48 47 46 46 45 45 44 44 44 44 43 43 43 42 42 43 43 44 45 45 47 48 47 48 50 52 54 55 57 59 62 63 64 66 68 70 73 75 78 80 82 85 87 89 92 94 97 99 102 104 107 109 112 114 116 118 120 122 123 124
46 44 42 41 40 39 39 39 39 40 40 41 42 43 43 44 45 46 46 46 46 47 47 47 47 47 46 45 45 44 44 44 44 44 43 43 43 43 42 42 42 42 42 43 44 45 46 47 49 50 51 52 53 55 57 59 60 62 65 66 68 69 71 74 76 79 82 85 87 89 91 94 96 99 102 104 107 109 112 114 116 118 120 121 122 122 122 122
43 42 41 41 40 40 40 40 41 41 42 43 43 44 45 45 46 46 46 46 46 46 46 45 45 44 43 43 43 43 42 42 42 42 42 42 42 42 42 43 43 43 43 44 45 47 48 49 51 52 53 54 56 58 59 61 64 66 68 70 72 74 76 78 80 83 86 89 92 94 96 99 102 105 108 110 113 115 117 119 120 121 121 121 120 119 119 118
41 41 41 40 40 41 41 42 42 43 43 44 44 45 45 46 46 46 46 46 45 44 43 43 42 42 41 41 41 41 41 41 40 41 41 41 42 42 43 43 44 44 45 46 47 49 50 51 53 55 55 57 59 61 63 66 68 70 73 75 77 79 80 82 85 88 91 94 97 99 102 104 107 110 113 115 117 118 119 119 118 117 117 117 116 115 114 113
41 40 40 40 41 41 42 43 43 44 44 45 45 45 45 45 45 45 44 44 43 42 41 41 40 40 40 40 40 40 40 40 40 40 41 41 42 43 43 44 45 46 47 48 49 51 52 54 56 58 60 61 63 65 67 70 72 74 77 79 82 84 85 87 90 93 97 100 102 104 107 109 111 113 114 116 116 117 116 115 114 113 112 112 111 111 110 109
Wind_Direction
222 224 224 224 223 223 225 226 227 227 227 227 227 229 230 231 233 236 237 237 238 240 242 244 246 247 248 249 250 251 252 254 255 255 256 256 256 256 257 258 259 259 259 258 258 259 259 260 260 261 261 262 263 264 265 267 268 269 270 271 272 272 273 273 274 274 275 275 276 278 279 279 280 280 281 281 281 282 282 283 283 283 283 283 283 283 283 282
224 226 227 227 227 226 227 228 230 230 230 231 231 231 231 231 232 234 236 237 239 241 242 244 246 247 248 249 249 251 252 254 256 256 257 258 259 259 259 259 260 261 262 262 263 263 264 264 265 265 265 265 266 267 268 269 270 271 272 273 273 274 274 274 274 275 276 276 277 277 279 279 280 281 281 281 282 282 282 283 283 282 282 282 282 282 282 281
226 228 229 230 230 230 230 231 232 233 233 234 235 236 236 235 236 236 236 237 239 240 242 244 246 247 249 249 250 251 252 254 256 257 258 258 259 260 260 261 261 262 263 263 264 264 265 266 267 268 268 269 269 270 270 271 272 273 273 273 274 274 274 275 275 276 277 277 277 278 279 279 280 281 281 282 282 282 283 283 282 282 281 281 281 281 281 281
227 229 231 232 233 234 234 234 235 236 236 236 238 240 240 241 241 242 242 242 242 243 243 244 245 247 248 249 250 251 252 254 255 257 258 259 259 260 260 261 262 263 263 264 264 265 265 266 267 268 269 270 270 271 271 272 273 273 274 274 275 275 275 276 276 277 277 278 279 280 280 281 281 281 282 282 282 282 282 282 281 280 279 279 279 280 280 281
228 230 232 234 236 236 237 238 238 239 240 239 240 242 243 244 245 246 246 247 247 248 248 249 249 250 250 251 252 253 254 255 255 256 257 258 259 260 261 261 261 262 263 263 264 265 265 266 267 267 268 269 269 270 271 271 272 273 273 274 275 275 276 277 277 278 278 279 280 281 281 282 282 282 282 282 281 282 281 280 279 278 278 278 279 279 280 280
230 231 233 235 237 238 240 241 241 242 243 243 244 245 246 247 248 249 249 250 251 252 253 253 254 254 254 255 255 255 256 257 257 257 258 258 259 260 260 261 261 262 262 262 263 264 264 265 266 267 267 268 269 269 270 271 272 272 273 274 275 275 276 277 278 278 279 279 280 280 281 281 282 282 282 281 281 280 280 279 278 277 277 278 278 278 278 278
233 234 235 236 238 240 241 243 244 245 246 247 247 248 249 250 251 252 252 253 254 255 256 257 257 258 258 258 258 259 259 259 259 259 259 260 260 260 261 261 262 262 262 263 264 264 265 265 266 266 267 268 269 270 270 271 272 273 273 274 275 276 277 277 278 279 279 279 280 280 280 280 281 280 280 280 280 279 278 277 277 277 278 278 278 278 278 278
236 237 238 239 240 241 243 244 246 247 249 250 250 251 252 253 254 255 255 256 257 257 258 259 260 260 261 261 261 261 261 261 261 261 261 261 262 262 262 262 262 263 263 264 265 265 266 267 267 268 268 269 270 271 271 272 273 273 274 275 276 276 277 278 278 279 279 279 279 280 280 280 279 279 278 278 278 277 276 276 277 277 277 277 277 277 278 277
237 238 239 240 242 243 244 245 247 248 250 251 252 253 254 255 256 257 257 258 259 259 260 261 261 262 262 263 263 264 264 263 264 264 264 264 264 264 264 265 265 265 265 266 266 267 267 268 269 269 270 270 271 271 272 273 274 274 275 275 276 277 277 278 278 278 279 279 279 279 279 279 279 278 277 276 276 276 276 276 276 275 275 275 275 276 276 276
240 240 241 242 242 244 245 246 248 249 250 252 253 254 255 256 257 258 259 259 260 261 261 262 263 263 264 264 264 265 265 265 265 265 265 265 265 265 265 266 266 266 267 267 268 268 269 269 270 270 271 271 272 272 273 274 274 275 275 276 276 277 277 278 278 278 279 279 279 279 279 279 277 276 275 275 275 275 275 275 275 274 274 274 274 274 274 275
246 246 245 245 245 245 246 247 248 249 250 252 253 254 255 256 258 259 259 260 261 262 263 263 264 264 265 265 265 266 266 266 266 266 266 266 266 266 266 267 267 267 267 268 268 269 269 270 270 271 272 272 272 273 273 274 275 275 275 276 276 277 277 277 278 278 278 278 279 279 279 277 276 274 274 275 275 275 274 274 274 276 276 276 275 274 273 273
252 251 250 250 249 249 249 249 250 250 251 252 254 255 256 257 258 259 260 261 262 263 263 264 265 265 266 266 266 267 267 267 267 267 268 268 268 268 268 268 268 268 268 268 269 269 269 270 270 271 271 272 272 273 273 273 274 274 275 275 276 277 277 277 278 278 278 278 278 278 278 276 274 273 274 274 274 274 275 275 277 278 277 276 275 273 272 272
256 256 255 255 254 254 254 254 254 255 256 257 257 258 259 259 260 261 262 262 263 264 265 265 265 266 266 267 267 267 268 268 269 269 269 269 269 269 269 269 269 269 269 269 269 269 269 270 270 270 271 271 271 272 272 273 273 274 274 275 276 277 278 278 279 279 279 279 279 278 277 275 274 273 273 274 274 275 277 278 278 277 275 274 273 272 273 273
261 259 259 258 258 258 258 258 259 259 259 260 260 261 261 261 262 263 263 264 265 265 266 266 267 267 267 268 268 268 269 269 269 270 270 270 270 270 270 270 270 270 270 270 269 269 270 270 270 270 270 270 271 271 272 272 273 273 274 275 276 277 278 278 278 279 279 279 279 277 275 274 274 274 273 274 274 277 279 278 277 275 274 273 272 273 275 276
263 262 261 261 260 260 260 260 260 260 260 261 262 262 263 264 264 265 266 266 267 268 268 269 269 270 270 270 271 271 271 271 271 272 272 272 272 272 271 271 271 270 270 270 270 269 269 269 269 269 269 269 270 271 271 272 272 273 274 275 276 276 277 278 279 279 279 279 278 277 275 273 273 274 274 274 276 278 278 276 275 274 273 273 274 275 276 278
262 261 260 260 259 259 260 260 261 262 264 266 268 269 270 271 271 272 272 272 272 273 273 273 273 274 274 274 274 274 274 274 275 275 275 275 275 275 274 273 272 271 270 270 269 269 269 269 269 268 268 269 269 270 271 272 272 273 274 275 276 277 277 278 279 279 279 278 277 276 275 272 272 275 276 276 277 278 276 275 275 274 274 274 275 276 278 280
261 261 262 263 264 266 267 269 271 273 275 276 276 276 276 276 275 275 275 275 276 276 277 278 278 278 278 278 278 278 278 278 278 279 279 279 278 278 277 276 274 272 271 270 269 268 268 268 268 268 268 269 269 270 271 272 272 273 274 275 276 277 278 278 277 278 278 277 276 276 275 273 273 275 276 278 278 276 275 275 275 276 276 277 278 280 282 283
270 272 275 277 279 280 281 281 281 279 278 277 277 277 276 275 274 275 277 278 280 281 282 282 282 282 281 281 281 281 281 281 281 281 281 280 280 279 278 277 275 273 272 270 269 268 268 268 268 268 268 269 269 270 271 271 272 273 274 275 276 277 277 276 275 275 275 275 276 277 276 274 274 275 277 278 277 275 274 275 275 276 278 279 281 283 284 285
281 283 284 284 285 285 283 282 280 278 277 277 279 280 279 279 279 281 283 285 286 286 286 286 286 285 285 284 284 284 283 283 284 283 283 282 281 280 279 277 276 275 273 272 270 269 269 268 268 268 269 269 270 270 271 271 272 273 274 275 276 276 275 273 272 271 271 274 276 277 277 275 275 275 276 276 276 276 277 277 277 278 280 281 283 284 284 285
283 284 286 286 287 287 287 285 284 284 284 286 288 290 289 289 289 290 292 293 292 290 289 289 289 289 288 288 287 287 287 287 288 287 286 285 284 282 280 279 278 276 275 274 272 271 270 269 269 269 270 270 270 271 271 271 272 273 274 274 274 273 271 272 272 270 270 273 276 276 276 274 273 274 274 275 276 278 279 280 281 281 282 283 283 284 284 285
285 287 288 289 291 292 292 293 293 293 292 293 296 298 298 298 298 298 298 298 297 294 293 293 293 293 292 292 292 292 291 292 292 291 289 287 286 284 282 280 279 278 277 275 274 272 271 270 270 271 271 271 271 271 271 271 271 271 272 272 271 270 269 270 272 272 274 276 276 275 273 271 270 271 273 275 278 280 281 282 282 283 283 283 283 284 284 285
285 288 290 292 292 293 294 296 296 294 294 296 299 302 303 304 304 304 302 301 299 298 298 297 297 297 296 296 296 296 295 295 295 293 291 289 287 285 284 282 281 280 278 277 275 274 272 272 272 272 271 271 271 270 270 270 270 270 269 269 269 269 269 270 271 273 276 276 274 272 270 269 270 272 274 277 279 281 281 281 282 282 282 282 282 283 283 284
285 288 290 291 292 293 294 295 295 295 296 299 302 304 305 306 306 306 304 303 301 300 300 300 300 300 300 299 299 299 299 298 297 295 293 291 289 287 285 284 283 282 281 279 277 275 275 274 274 273 271 271 271 270 270 269 268 268 268 268 268 270 270 271 272 274 274 273 271 270 270 270 272 274 276 278 280 281 281 281 281 281 281 282 282 282 283 284
285 287 289 291 292 292 292 293 294 295 298 301 303 304 305 307 307 306 304 303 302 302 302 302 302 302 302 301 302 301 301 299 298 295 293 292 290 289 288 286 285 284 283 281 279 277 276 275 274 273 273 272 272 270 269 267 267 268 269 269 270 271 272 272 272 272 272 271 271 271 272 273 275 277 278 279 280 280 280 281 281 281 282 282 283 284 285 286
284 286 288 290 291 290 290 292 293 296 299 302 303 304 306 307 306 306 304 303 303 303 303 303 303 303 303 303 303 302 301 299 297 295 293 291 290 290 290 289 287 286 284 282 281 279 278 277 275 275 274 273 272 272 270 270 270 271 272 272 272 272 271 270 269 269 269 271 272 272 273 274 276 277 278 279 279 279 280 280 280 281 281 282 284 285 286 286
284 286 287 289 289 288 290 293 295 297 300 301 303 305 306 306 306 305 304 303 303 304 304 304 304 304 304 304 303 302 301 298 296 294 293 291 290 290 289 289 289 287 286 284 282 281 281 280 278 277 276 274 274 273 273 273 273 273 274 274 273 271 270 270 269 269 269 270 272 272 274 275 276 276 277 277 278 278 279 279 279 280 281 283 284 285 286 286
285 286 287 287 287 289 292 294 296 298 300 301 304 306 306 307 306 304 303 303 303 304 304 305 305 305 305 305 304 302 300 298 296 294 293 292 291 291 290 290 290 289 287 286 284 283 282 281 280 279 278 276 275 275 274 274 273 273 273 273 273 272 271 271 271 272 272 273 274 274 275 276 277 276 276 276 277 277 278 279 280 281 282 283 285 286 287 287
287 288 288 288 290 292 293 294 296 298 300 303 306 307 308 307 305 303 303 304 304 305 305 305 305 305 305 305 303 302 299 297 296 295 294 293 292 292 292 291 291 290 289 288 286 285 284 282 282 281 279 278 277 275 275 274 273 273 273 273 273 273 273 273 273 274 274 275 275 275 275 276 276 276 277 277 278 279 280 281 282 283 284 285 287 287 287 287
290 289 288 290 292 292 293 295 298 300 303 307 309 309 308 306 304 303 304 304 305 306 306 306 306 306 306 305 303 301 299 298 297 296 295 295 295 295 294 294 293 292 291 290 288 287 286 284 283 282 281 280 279 277 276 276 275 274 274 274 274 274 274 275 275 275 275 275 275 275 276 276 276 277 279 279 280 281 282 283 284 285 286 287 287 287 287 287
293 291 290 291 292 293 294 298 301 305 308 310 310 308 306 304 304 304 305 306 306 307 307 307 307 307 306 304 302 300 299 298 298 297 297 297 297 298 297 296 296 294 293 291 290 289 288 287 286 284 283 282 281 279 278 278 277 277 276 276 276 277 277 277 277 277 276 276 276 277 277 277 278 279 280 281 282 283 284 285 286 286 287 287 287 287 287 286
295 292 292 292 293 295 298 302 306 310 312 311 309 307 305 305 305 306 306 307 307 308 308 308 308 307 305 304 302 300 299 298 298 298 297 298 298 298 298 298 297 296 294 293 292 290 289 288 287 286 285 284 283 282 281 280 279 279 278 278 278 278 279 279 278 278 278 278 278 279 279 280 280 281 282 283 284 285 286 286 287 287 287 287 287 287 286 286
297 297 297 298 298 301 304 307 310 312 311 310 308 307 307 307 307 307 308 308 308 308 308 308 308 306 304 303 302 301 300 300 299 299 298 298 298 298 297 297 296 296 295 294 293 292 291 290 289 288 287 286 285 284 283 283 282 281 280 280 279 279 280 279 279 279 280 280 280 281 282 282 283 284 285 285 286 286 287 286 286 286 286 286 286 285 285 285
303 305 306 306 306 307 308 309 311 311 310 309 308 308 308 308 308 309 309 309 309 309 309 308 307 306 304 303 302 301 300 300 300 299 299 299 298 298 297 296 295 295 294 294 294 293 293 292 290 290 289 288 287 287 286 286 284 283 283 282 282 281 281 281 281 281 281 282 283 283 284 285 285 286 287 287 287 287 286 286 286 285 285 285 285 285 285 285
305 307 308 308 309 309 310 311 311 310 309 309 309 309 309 309 309 310 310 310 309 309 308 308 307 306 304 304 303 302 301 301 300 300 300 300 299 299 298 297 296 296 295 295 294 294 294 293 292 291 291 290 290 290 289 288 288 287 286 286 285 285 284 284 283 283 284 284 285 285 286 286 287 287 288 288 288 287 286 286 286 286 286 285 285 285 286 286
306 308 310 311 312 312 312 312 311 310 309 309 310 310 310 310 310 310 310 310 310 309 308 307 307 306 305 304 304 303 303 303 302 302 301 301 300 299 299 298 298 297 297 297 296 296 295 295 294 293 292 292 292 292 291 291 290 289 288 288 287 287 287 286 286 286 286 286 286 286 287 287 288 288 288 288 287 287 286 286 286 286 286 286 286 286 286 286
311 313 314 314 314 313 312 311 310 310 310 310 310 310 310 311 311 311 311 311 310 309 308 307 307 307 306 305 304 304 304 303 303 303 302 301 301 300 299 299 298 298 298 297 297 296 296 295 294 294 293 293 293 293 292 291 291 290 289 289 288 288 288 287 287 287 287 287 286 286 287 287 288 288 288 287 287 286 287 287 286 286 286 286 286 286 286 286
316 316 316 315 314 313 311 311 310 310 311 311 311 311 311 311 312 312 312 311 311 310 310 310 309 308 306 305 305 305 304 304 304 303 303 302 302 301 300 300 300 299 299 298 297 297 296 295 294 294 294 294 294 293 292 292 291 291 290 289 289 288 288 288 288 288 288 287 287 287 287 287 288 288 288 287 287 287 287 287 287 287 287 287 287 286 286 285
317 317 316 314 313 312 311 311 311 311 311 311 311 311 312 312 312 312 312 312 311 311 312 311 310 309 308 308 307 307 306 305 304 303 303 303 302 302 301 301 300 300 299 298 298 297 296 295 294 294 294 294 294 293 293 292 292 291 291 290 289 289 289 288 288 288 288 288 288 288 288 289 289 289 288 288 287 287 287 287 287 287 287 287 287 286 286 286
317 316 315 313 312 312 312 312 311 312 312 312 312 312 312 312 312 312 312 312 312 312 311 311 310 310 309 309 308 307 306 306 305 304 304 303 303 302 301 300 299 299 298 298 297 297 296 295 293 294 294 294 294 294 293 293 292 292 291 291 291 290 290 290 290 290 289 289 289 289 289 290 290 289 289 289 288 288 288 288 288 287 287 287 287 287 287 287
317 316 315 313 313 312 312 312 312 312 312 312 312 312 313 313 313 313 313 312 312 312 312 311 310 310 309 308 308 307 306 306 305 305 304 304 303 302 301 300 299 299 298 297 297 297 296 295 294 294 294 294 294 294 293 293 293 292 292 292 291 291 291 292 292 292 292 291 290 290 290 291 291 290 290 290 290 289 289 289 289 288 288 288 288 288 288 288
316 316 314 313 312 312 312 312 312 312 312 312 313 313 314 314 314 314 313 313 313 313 312 311 310 310 309 308 307 307 306 306 305 305 304 303 302 302 301 301 300 300 299 299 298 297 297 296 296 295 296 295 295 295 294 294 294 293 293 293 293 294 294 294 294 294 293 293 292 292 292 292 291 291 291 291 290 290 290 290 289 289 289 289 289 289 288 288
315 314 313 312 312 312 312 312 312 312 313 313 314 314 314 314 314 314 314 314 314 313 312 310 310 309 309 308 307 307 306 305 305 304 304 303 302 302 302 301 301 300 300 299 299 299 298 298 297 297 297 297 297 296 296 296 296 296 296 296 296 296 296 296 296 295 295 294 294 293 294 293 292 292 291 291 291 291 290 290 290 289 290 290 290 289 289 289
313 312 312 312 312 312 312 312 313 313 314 314 314 314 314 315 315 314 314 314 313 312 312 311 310 309 308 307 306 306 305 305 304 304 304 303 303 302 302 301 301 301 301 300 300 300 300 300 299 298 298 298 299 299 298 298 298 298 299 298 298 298 298 298 298 297 296 295 295 295 295 294 293 293 292 292 292 291 291 291 290 290 290 290 290 289 289 289
312 311 312 312 312 312 312 313 313 314 314 314 315 315 315 316 315 315 315 314 313 313 312 311 310 309 308 307 306 306 305 305 305 305 305 304 304 303 303 303 302 302 302 302 301 301 301 300 300 300 300 301 302 302 301 300 300 301 301 300 300 300 300 299 298 297 296 295 295 295 295 294 294 293 293 293 292 292 291 291 291 290 290 290 290 290 290 291
311 311 312 312 312 313 313 314 315 315 315 315 315 316 316 316 315 315 314 314 313 312 311 310 309 308 308 307 307 307 307 307 307 306 306 305 305 305 305 305 305 305 304 304 304 303 303 302 302 302 303 304 304 303 303 302 302 302 301 300 300 300 299 298 297 296 296 295 295 295 295 294 294 294 293 293 293 293 293 293 293 293 294 294 294 294 294 294
311 312 312 313 313 314 315 315 315 315 315 315 316 316 316 316 315 315 314 313 312 311 311 310 309 309 309 309 309 309 308 308 308 307 307 307 307 307 307 307 307 307 307 307 306 306 305 305 305 305 306 306 305 304 304 303 303 302 301 300 300 299 299 298 298 297 297 297 296 296 296 296 296 296 295 296 296 296 296 296 296 297 297 297 297 296 296 296
312 313 313 314 315 315 315 315 315 315 316 316 316 316 316 315 315 314 313 312 312 311 310 310 310 310 310 310 310 310 310 310 310 309 309 309 309 309 309 309 309 309 309 309 308 308 307 307 307 307 308 307 306 305 305 304 303 302 301 301 301 301 300 299 299 298 298 298 298 298 298 298 298 298 298 298 298 297 297 297 297 296 296 296 295 295 295 295
313 313 314 315 315 315 314 315 315 316 316 317 317 316 316 315 314 313 312 312 311 311 310 311 311 312 312 311 311 311 311 311 311 311 311 311 311 311 311 311 311 311 311 310 310 309 309 309 308 308 309 308 307 306 306 305 304 303 303 302 302 301 301 300 300 300 300 300 300 299 299 299 299 298 298 298 297 296 296 296 295 295 295 295 295 295 295 295
313 313 314 314 314 314 314 315 316 316 317 317 316 315 315 314 313 313 312 312 311 311 312 312 313 313 312 312 312 312 313 313 313 313 314 314 313 313 313 312 312 312 312 311 311 310 310 310 310 310 310 309 308 307 307 306 305 304 303 303 303 302 302 302 302 302 301 301 300 300 299 299 299 298 298 297 297 297 297 297 297 297 297 297 297 297 297 297
312 313 313 313 314 315 315 316 316 316 316 316 315 315 314 313 313 312 312 312 313 313 313 313 313 313 313 313 314 314 314 315 315 315 315 315 314 314 314 314 313 313 313 312 312 311 312 311 311 311 310 309 308 307 306 305 305 304 304 304 303 303 303 303 302 302 301 300 300 300 300 300 300 300 300 300 299 299 299 299 299 299 299 298 298 298 298 298
312 312 312 313 314 315 315 316 316 316 315 315 315 314 314 313 313 313 313 314 314 314 314 314 314 314 315 315 316 316 316 315 315 314 314 314 314 314 314 313 313 313 313 313 312 312 312 311 310 309 309 308 307 307 306 306 305 305 305 304 304 303 303 302 302 302 301 301 301 301 302 302 302 301 301 301 301 301 300 300 300 300 300 300 299 299 299 299
312 312 312 313 314 315 315 315 316 316 315 315 315 314 314 314 314 315 315 315 315 315 315 316 316 316 317 317 317 316 316 315 315 314 314 314 314 314 313 313 313 314 314 313 312 311 311 310 309 309 308 308 308 307 307 306 306 305 305 304 303 303 303 303 303 303 303 303 303 303 303 303 302 302 301 301 301 301 301 301 300 300 300 300 300 300 299 298
Height
10751 10753 10754 10755 10756 10757 10758 10759 10761 10762 10764 10765 10766 10767 10768 10768 10769 10769 10770 10770 10770 10770 10770 10769 10769 10769 10769 10768 10768 10768 10768 10767 10767 10767 10767 10766 10766 10766 10765 10764 10763 10763 10762 10762 10761 10761 10760 10760 10759 10758 10757 10757 10756 10754 10753 10752 10751 10750 10748 10746 10745 10747 10744 10741 10742 10742 10741 10740 10736 10733 10731 10731 10730 10728 10726 10725 10723 10722 10718 10715 10713 10708 10703 10702 10698 10695 10694 10691
10749 10750 10751 10752 10753 10754 10756 10757 10758 10759 10761 10762 10763 10764 10764 10765 10765 10766 10766 10766 10766 10767 10767 10766 10766 10765 10765 10765 10764 10764 10764 10763 10762 10762 10762 10761 10761 10760 10759 10759 10758 10757 10756 10756 10755 10755 10754 10754 10754 10752 10750 10750 10749 10748 10747 10746 10745 10743 10742 10740 10739 10739 10736 10734 10735 10734 10734 10733 10730 10727 10725 10724 10722 10720 10717 10716 10715 10713 10711 10707 10704 10699 10696 10693 10689 10686 10684 10682
10746 10747 10748 10750 10751 10752 10753 10754 10755 10756 10758 10759 10759 10760 10760 10761 10761 10762 10762 10762 10763 10763 10763 10762 10762 10762 10761 10761 10760 10760 10760 10758 10758 10757 10756 10756 10755 10754 10754 10753 10752 10751 10750 10750 10749 10749 10748 10748 10747 10745 10744 10743 10742 10741 10740 10739 10739 10737 10734 10733 10732 10732 10728 10727 10728 10727 10726 10724 10721 10719 10718 10716 10714 10712 10709 10707 10706 10703 10702 10699 10695 10692 10688 10685 10681 10678 10675 10673
10744 10745 10746 10747 10748 10749 10750 10751 10752 10753 10754 10755 10756 10756 10756 10757 10758 10758 10758 10759 10759 10759 10759 10758 10758 10758 10757 10757 10756 10756 10755 10754 10754 10752 10751 10751 10750 10749 10748 10747 10746 10745 10744 10743 10743 10742 10742 10741 10741 10739 10738 10736 10734 10734 10733 10732 10733 10730 10727 10726 10725 10725 10722 10720 10720 10719 10719 10716 10713 10710 10709 10707 10705 10703 10701 10699 10696 10693 10693 10690 10687 10684 10681 10677 10673 10670 10667 10665
10741 10742 10743 10744 10745 10746 10747 10748 10748 10749 10750 10751 10752 10752 10753 10753 10754 10754 10755 10755 10755 10755 10755 10754 10754 10753 10753 10752 10752 10751 10751 10750 10749 10747 10746 10745 10744 10743 10742 10742 10741 10740 10739 10737 10737 10736 10735 10735 10734 10733 10731 10729 10728 10727 10726 10725 10726 10723 10719 10719 10719 10717 10715 10713 10711 10711 10712 10709 10705 10702 10699 10697 10695 10693 10690 10689 10687 10685 10684 10681 10678 10676 10673 10669 10665 10662 10659 10657
10739 10740 10741 10741 10742 10743 10743 10744 10745 10746 10747 10748 10748 10749 10749 10749 10750 10750 10751 10751 10751 10751 10750 10750 10749 10748 10748 10747 10747 10746 10745 10744 10743 10742 10741 10740 10738 10737 10736 10735 10734 10733 10733 10731 10730 10730 10729 10728 10727 10726 10725 10723 10721 10721 10720 10718 10719 10716 10712 10712 10711 10709 10708 10705 10703 10702 10703 10701 10698 10695 10691 10689 10687 10683 10679 10678 10678 10676 10674 10672 10669 10667 10665 10662 10658 10655 10652 10650
10737 10737 10738 10739 10740 10740 10740 10741 10742 10742 10743 10744 10745 10745 10745 10745 10746 10746 10746 10746 10746 10746 10745 10745 10743 10742 10742 10741 10740 10740 10739 10738 10736 10736 10734 10733 10732 10731 10730 10729 10728 10727 10726 10725 10724 10723 10722 10722 10720 10719 10718 10717 10715 10713 10713 10712 10711 10709 10706 10704 10703 10701 10700 10698 10695 10693 10693 10692 10690 10687 10684 10682 10679 10674 10669 10669 10668 10666 10665 10663 10660 10658 10656 10654 10651 10648 10645 10642
10734 10735 10736 10736 10737 10737 10738 10738 10739 10739 10740 10740 10740 10741 10741 10741 10742 10742 10742 10741 10741 10740 10740 10739 10737 10736 10735 10734 10734 10733 10732 10731 10729 10728 10727 10726 10725 10724 10723 10722 10721 10720 10719 10718 10717 10716 10715 10714 10713 10712 10711 10710 10708 10706 10705 10705 10703 10701 10699 10697 10694 10692 10691 10690 10687 10684 10683 10682 10680 10678 10675 10673 10670 10665 10661 10661 10660 10656 10656 10655 10652 10650 10649 10648 10645 10641 10637 10634
10731 10732 10733 10733 10734 10734 10734 10735 10735 10735 10736 10736 10736 10737 10737 10737 10737 10737 10737 10736 10736 10735 10734 10733 10732 10730 10729 10728 10727 10726 10725 10724 10722 10721 10720 10719 10718 10718 10716 10715 10714 10713 10712 10711 10710 10709 10707 10706 10704 10704 10703 10701 10701 10699 10697 10696 10694 10692 10691 10688 10686 10684 10682 10680 10678 10675 10673 10671 10670 10668 10666 10663 10660 10656 10651 10652 10651 10647 10647 10647 10645 10643 10642 10641 10639 10635 10631 10627
10728 10729 10729 10730 10730 10730 10731 10731 10731 10731 10732 10732 10732 10732 10732 10732 10732 10731 10731 10731 10730 10729 10728 10727 10726 10724 10723 10722 10720 10719 10718 10716 10715 10714 10712 10712 10711 10710 10709 10707 10706 10705 10704 10703 10702 10701 10699 10698 10696 10695 10694 10692 10691 10690 10689 10687 10685 10683 10682 10679 10677 10676 10673 10670 10668 10667 10665 10662 10660 10658 10657 10654 10650 10646 10641 10642 10643 10640 10640 10639 10638 10637 10635 10634 10632 10628 10624 10620
10726 10726 10727 10727 10727 10727 10727 10727 10727 10727 10727 10727 10727 10727 10727 10727 10727 10726 10726 10725 10725 10724 10723 10721 10720 10718 10717 10715 10714 10712 10711 10709 10707 10706 10704 10703 10703 10701 10700 10699 10698 10697 10696 10695 10694 10692 10691 10689 10687 10687 10685 10683 10682 10681 10680 10679 10677 10674 10672 10669 10668 10667 10664 10660 10658 10658 10656 10653 10651 10650 10649 10645 10639 10637 10633 10633 10635 10633 10632 10632 10631 10630 10628 10626 10623 10620 10616 10614
10723 10723 10724 10724 10724 10724 10724 10724 10724 10724 10724 10724 10724 10724 10723 10723 10722 10722 10721 10720 10719 10718 10717 10715 10714 10712 10710 10708 10707 10706 10704 10701 10699 10698 10697 10695 10694 10692 10691 10690 10689 10688 10687 10686 10685 10683 10683 10681 10679 10678 10676 10674 10673 10672 10671 10669 10668 10665 10663 10661 10659 10658 10656 10651 10649 10648 10647 10645 10643 10643 10643 10635 10628 10628 10626 10626 10627 10626 10625 10625 10624 10622 10620 10618 10614 10610 10607 10606
10721 10721 10721 10721 10721 10721 10721 10721 10721 10721 10721 10721 10720 10720 10719 10719 10718 10717 10716 10715 10714 10713 10711 10709 10708 10706 10704 10702 10700 10699 10697 10694 10692 10691 10689 10688 10685 10683 10682 10681 10680 10679 10678 10677 10675 10674 10673 10672 10671 10669 10667 10666 10664 10663 10662 10660 10659 10656 10655 10654 10651 10650 10647 10643 10641 10639 10638 10637 10635 10636 10636 10626 10617 10619 10620 10619 10620 10620 10619 10618 10615 10613 10611 10610 10606 10601 10597 10598
10718 10718 10719 10719 10719 10719 10719 10718 10718 10718 10718 10717 10717 10716 10715 10715 10714 10713 10712 10711 10709 10707 10705 10703 10702 10700 10698 10696 10694 10692 10690 10688 10686 10684 10682 10680 10678 10675 10673 10672 10671 10669 10668 10667 10666 10665 10664 10663 10662 10660 10658 10657 10655 10655 10654 10652 10650 10648 10647 10646 10644 10643 10639 10636 10633 10631 10630 10630 10628 10628 10630 10620 10607 10609 10614 10612 10613 10614 10614 10610 10607 10604 10602 10600 10597 10593 10590 10589
10716 10716 10716 10716 10716 10716 10716 10716 10715 10715 10714 10714 10713 10712 10711 10711 10709 10708 10707 10706 10704 10702 10700 10698 10696 10694 10692 10691 10688 10686 10684 10681 10679 10677 10675 10672 10670 10668 10666 10664 10662 10660 10659 10658 10658 10656 10655 10654 10653 10651 10649 10649 10648 10647 10646 10644 10642 10641 10641 10638 10637 10636 10633 10629 10626 10624 10623 10623 10621 10619 10622 10616 10600 10600 10605 10605 10608 10610 10607 10601 10598 10597 10594 10591 10587 10585 10583 10580
10714 10714 10714 10714 10714 10714 10713 10713 10712 10712 10711 10710 10709 10708 10707 10706 10705 10704 10702 10701 10699 10697 10695 10693 10691 10689 10687 10685 10682 10679 10677 10675 10673 10670 10667 10665 10663 10660 10657 10655 10654 10652 10650 10650 10649 10648 10646 10645 10644 10642 10641 10641 10640 10639 10639 10637 10634 10633 10634 10632 10630 10629 10627 10623 10618 10617 10618 10617 10614 10612 10615 10610 10598 10595 10595 10597 10603 10604 10598 10592 10589 10589 10585 10581 10578 10576 10575 10571
10712 10712 10712 10712 10711 10711 10710 10710 10709 10708 10708 10707 10706 10705 10704 10703 10701 10700 10698 10696 10694 10692 10690 10688 10685 10683 10681 10679 10676 10673 10671 10668 10667 10664 10660 10657 10655 10652 10649 10647 10645 10644 10642 10642 10641 10639 10638 10637 10635 10634 10633 10633 10633 10632 10631 10629 10627 10626 10626 10625 10623 10622 10620 10617 10612 10611 10612 10610 10608 10606 10607 10602 10595 10591 10588 10590 10597 10595 10589 10585 10582 10580 10575 10570 10568 10567 10565 10562
10710 10710 10709 10709 10709 10708 10708 10707 10707 10706 10705 10704 10703 10702 10700 10699 10698 10696 10694 10692 10690 10687 10685 10683 10680 10677 10675 10673 10670 10668 10665 10662 10660 10658 10653 10650 10648 10645 10642 10639 10637 10635 10635 10634 10633 10631 10630 10629 10627 10625 10626 10626 10625 10625 10624 10621 10620 10619 10618 10618 10616 10615 10613 10610 10608 10607 10605 10604 10602 10599 10599 10595 10590 10586 10582 10583 10586 10584 10581 10578 10574 10571 10567 10562 10560 10558 10556 10553
10707 10707 10707 10707 10707 10706 10706 10705 10704 10703 10702 10701 10700 10698 10697 10695 10693 10692 10690 10687 10685 10683 10680 10677 10675 10672 10669 10667 10664 10661 10658 10656 10654 10650 10646 10643 10641 10638 10634 10632 10629 10628 10628 10626 10625 10623 10623 10621 10618 10618 10619 10618 10618 10617 10616 10614 10613 10612 10611 10611 10610 10609 10606 10602 10603 10603 10600 10599 10596 10592 10592 10589 10584 10581 10578 10576 10574 10573 10571 10568 10565 10563 10559 10556 10552 10550 10547 10544
10705 10705 10705 10705 10705 10704 10703 10702 10701 10700 10698 10697 10696 10694 10693 10691 10689 10688 10685 10682 10679 10677 10675 10672 10669 10666 10663 10661 10658 10655 10652 10649 10647 10643 10639 10636 10633 10630 10627 10625 10623 10622 10621 10619 10618 10616 10615 10613 10610 10611 10612 10611 10611 10610 10608 10607 10607 10605 10604 10604 10603 10602 10598 10595 10596 10596 10593 10594 10590 10586 10584 10581 10578 10577 10573 10568 10565 10564 10561 10557 10555 10553 10550 10548 10544 10541 10537 10534
10703 10703 10703 10703 10702 10702 10701 10699 10698 10696 10695 10693 10692 10690 10688 10686 10684 10683 10681 10678 10674 10671 10669 10667 10664 10660 10657 10655 10652 10649 10645 10642 10639 10635 10632 10630 10627 10624 10621 10619 10617 10616 10615 10613 10611 10609 10608 10606 10604 10605 10605 10603 10603 10602 10601 10601 10600 10599 10598 10598 10596 10594 10593 10591 10589 10588 10586 10586 10583 10580 10577 10574 10573 10572 10567 10561 10558 10555 10552 10549 10545 10543 10541 10539 10535 10532 10529 10526
10702 10701 10701 10700 10700 10699 10698 10696 10695 10693 10691 10690 10688 10686 10684 10682 10680 10677 10675 10673 10670 10666 10663 10661 10658 10654 10651 10648 10645 10642 10639 10635 10632 10628 10625 10623 10621 10618 10615 10613 10611 10610 10609 10608 10606 10603 10601 10600 10599 10599 10598 10596 10596 10595 10595 10594 10593 10592 10591 10591 10589 10587 10588 10586 10582 10581 10579 10578 10576 10572 10569 10566 10567 10566 10561 10556 10551 10547 10544 10540 10536 10534 10532 10530 10527 10523 10520 10517
10700 10699 10699 10698 10697 10696 10695 10693 10691 10690 10688 10686 10684 10682 10680 10678 10675 10673 10670 10668 10665 10661 10658 10655 10652 10648 10644 10641 10639 10636 10632 10628 10625 10622 10619 10616 10614 10612 10610 10608 10606 10605 10604 10602 10600 10598 10596 10594 10594 10593 10591 10590 10589 10589 10589 10588 10586 10585 10584 10584 10583 10580 10580 10579 10576 10574 10572 10571 10569 10564 10560 10558 10559 10557 10554 10549 10543 10538 10535 10531 10527 10525 10523 10520 10517 10514 10511 10508
10698 10697 10696 10695 10694 10693 10691 10690 10688 10687 10685 10683 10681 10678 10676 10674 10671 10668 10665 10662 10659 10656 10653 10649 10646 10643 10639 10635 10633 10629 10625 10622 10619 10617 10614 10611 10608 10607 10605 10603 10601 10600 10599 10597 10595 10592 10590 10589 10588 10587 10585 10584 10583 10583 10582 10582 10580 10578 10578 10578 10576 10574 10573 10572 10570 10567 10566 10564 10562 10556 10551 10551 10550 10548 10545 10540 10534 10530 10526 10522 10518 10515 10513 10509 10506 10503 10501 10497
10696 10695 10693 10692 10691 10689 10688 10687 10685 10683 10682 10680 10677 10675 10672 10670 10667 10663 10660 10657 10654 10651 10647 10644 10640 10637 10634 10630 10627 10624 10620 10616 10614 10611 10609 10606 10604 10602 10600 10597 10596 10595 10594 10592 10590 10587 10585 10584 10582 10581 10580 10579 10578 10577 10576 10575 10574 10572 10571 10571 10570 10568 10566 10565 10564 10561 10560 10557 10553 10548 10544 10543 10542 10540 10537 10531 10525 10522 10518 10513 10510 10506 10503 10499 10496 10494 10490 10487
10693 10692 10691 10690 10688 10686 10685 10684 10682 10680 10678 10676 10673 10671 10669 10665 10662 10659 10655 10651 10649 10646 10642 10638 10635 10632 10628 10625 10621 10618 10614 10611 10609 10606 10604 10602 10600 10598 10595 10593 10592 10590 10588 10587 10584 10582 10580 10578 10577 10576 10575 10573 10572 10571 10570 10569 10568 10566 10564 10563 10563 10562 10560 10558 10556 10554 10552 10550 10544 10539 10536 10534 10532 10530 10528 10523 10517 10513 10509 10505 10501 10497 10493 10491 10488 10485 10481 10476
10690 10689 10688 10686 10685 10683 10682 10680 10678 10676 10674 10672 10670 10667 10664 10661 10658 10654 10650 10646 10643 10641 10637 10633 10629 10626 10623 10619 10615 10612 10609 10606 10604 10602 10600 10597 10595 10594 10592 10589 10587 10585 10584 10582 10579 10577 10575 10573 10572 10570 10569 10568 10566 10565 10564 10562 10562 10560 10558 10556 10555 10554 10552 10550 10547 10545 10543 10541 10535 10531 10528 10525 10521 10519 10517 10515 10510 10505 10500 10496 10492 10488 10484 10481 10478 10475 10471 10466
10687 10686 10684 10683 10681 10680 10679 10677 10675 10672 10670 10668 10666 10663 10660 10657 10653 10649 10646 10642 10638 10635 10632 10628 10624 10620 10617 10614 10610 10607 10604 10601 10599 10597 10595 10593 10591 10589 10587 10585 10583 10581 10579 10577 10575 10572 10570 10568 10567 10565 10564 10562 10561 10559 10558 10556 10555 10554 10552 10550 10548 10546 10544 10541 10539 10536 10533 10531 10525 10522 10520 10515 10511 10508 10505 10504 10501 10496 10491 10487 10482 10478 10474 10470 10468 10464 10459 10454
10684 10682 10681 10679 10678 10677 10675 10673 10671 10668 10666 10664 10661 10659 10655 10652 10648 10644 10641 10637 10633 10629 10626 10622 10618 10614 10612 10608 10605 10602 10599 10597 10595 10593 10591 10589 10587 10585 10583 10580 10578 10577 10574 10572 10570 10567 10565 10563 10561 10560 10558 10556 10555 10553 10551 10550 10549 10547 10545 10543 10540 10538 10536 10533 10530 10527 10524 10521 10516 10512 10510 10505 10502 10500 10495 10492 10490 10485 10481 10476 10471 10467 10463 10460 10458 10453 10446 10441
10680 10679 10677 10676 10674 10672 10671 10669 10667 10664 10662 10659 10657 10654 10651 10647 10643 10640 10636 10632 10628 10624 10620 10617 10613 10609 10606 10603 10600 10597 10595 10593 10591 10589 10586 10584 10582 10581 10579 10576 10574 10572 10570 10568 10565 10562 10560 10558 10556 10554 10552 10550 10548 10547 10545 10543 10541 10540 10537 10534 10532 10529 10527 10525 10521 10518 10514 10511 10507 10503 10499 10494 10492 10490 10487 10483 10480 10475 10470 10465 10460 10456 10452 10449 10446 10440 10433 10427
10677 10675 10674 10672 10671 10669 10667 10665 10663 10660 10657 10655 10652 10649 10645 10642 10639 10635 10631 10627 10623 10618 10615 10612 10608 10603 10600 10598 10596 10593 10591 10589 10587 10585 10583 10581 10579 10577 10574 10572 10569 10567 10565 10563 10560 10558 10555 10552 10550 10547 10545 10543 10541 10540 10538 10536 10534 10532 10529 10526 10523 10520 10518 10515 10511 10508 10504 10501 10497 10492 10488 10484 10482 10480 10477 10474 10471 10466 10460 10454 10449 10444 10441 10438 10434 10428 10421 10416
10674 10672 10671 10669 10667 10665 10663 10661 10659 10656 10653 10650 10647 10643 10640 10636 10633 10630 10626 10621 10617 10613 10609 10606 10602 10599 10596 10594 10591 10589 10587 10585 10584 10581 10579 10577 10575 10573 10570 10568 10565 10562 10560 10557 10555 10552 10550 10547 10544 10542 10539 10536 10534 10533 10531 10529 10527 10524 10520 10518 10515 10512 10509 10506 10502 10498 10494 10491 10486 10481 10477 10474 10472 10470 10467 10465 10461 10456 10450 10444 10439 10434 10431 10427 10422 10417 10411 10405
10671 10669 10668 10666 10664 10662 10659 10657 10655 10652 10649 10645 10642 10638 10635 10631 10627 10624 10620 10616 10612 10608 10603 10600 10598 10594 10591 10590 10588 10585 10583 10582 10580 10578 10575 10573 10571 10569 10566 10563 10561 10558 10556 10553 10550 10546 10543 10541 10538 10536 10533 10530 10528 10526 10524 10522 10519 10516 10512 10509 10506 10503 10501 10498 10494 10489 10485 10481 10477 10471 10467 10464 10462 10460 10457 10454 10451 10445 10439 10433 10428 10424 10421 10417 10411 10406 10401 10396
10668 10666 10664 10662 10660 10657 10655 10653 10650 10648 10644 10640 10637 10633 10629 10625 10622 10618 10615 10611 10607 10603 10598 10595 10593 10590 10587 10586 10584 10581 10579 10578 10576 10574 10571 10569 10567 10564 10561 10558 10556 10553 10551 10548 10545 10542 10538 10534 10531 10529 10526 10524 10522 10520 10517 10514 10511 10508 10504 10501 10497 10494 10491 10488 10485 10481 10477 10473 10467 10462 10457 10454 10452 10450 10447 10444 10439 10432 10426 10421 10417 10413 10410 10405 10400 10396 10392 10387
10664 10662 10660 10658 10655 10653 10651 10648 10646 10643 10639 10635 10632 10628 10624 10620 10616 10612 10609 10605 10601 10598 10594 10591 10588 10586 10584 10582 10580 10577 10575 10573 10571 10569 10567 10564 10562 10559 10556 10554 10551 10548 10545 10542 10539 10537 10533 10528 10524 10522 10519 10517 10515 10512 10509 10506 10503 10500 10496 10492 10488 10485 10481 10478 10474 10471 10468 10465 10459 10454 10449 10445 10441 10440 10438 10434 10427 10420 10415 10410 10406 10402 10398 10394 10390 10387 10383 10378
10661 10658 10656 10654 10652 10649 10647 10644 10641 10638 10634 10631 10626 10622 10619 10615 10611 10607 10603 10599 10595 10592 10590 10587 10584 10582 10580 10578 10576 10574 10571 10569 10566 10564 10562 10559 10557 10554 10551 10548 10546 10543 10540 10537 10533 10531 10528 10522 10517 10515 10513 10511 10509 10506 10502 10499 10495 10492 10489 10485 10481 10477 10473 10469 10465 10462 10459 10456 10450 10446 10442 10437 10432 10431 10429 10422 10415 10410 10405 10400 10395 10391 10387 10383 10380 10377 10373 10369
10657 10655 10653 10651 10648 10645 10642 10639 10636 10632 10629 10625 10621 10617 10613 10609 10606 10602 10597 10594 10590 10587 10585 10583 10580 10578 10576 10574 10572 10570 10567 10565 10562 10560 10557 10554 10551 10549 10546 10543 10540 10537 10533 10530 10528 10525 10523 10517 10510 10508 10507 10504 10502 10499 10496 10492 10488 10484 10481 10477 10473 10469 10465 10461 10457 10453 10450 10446 10441 10436 10434 10430 10424 10422 10418 10411 10405 10401 10395 10390 10385 10381 10377 10373 10369 10366 10362 10358
10654 10652 10650 10647 10644 10641 10638 10634 10631 10627 10624 10620 10616 10612 10608 10604 10600 10596 10593 10589 10586 10583 10581 10578 10576 10574 10572 10569 10567 10565 10562 10560 10557 10555 10552 10549 10546 10543 10540 10537 10534 10530 10527 10524 10521 10518 10517 10512 10504 10500 10500 10498 10495 10492 10488 10484 10480 10476 10472 10467 10464 10460 10456 10452 10449 10445 10441 10437 10432 10426 10424 10421 10416 10412 10407 10401 10396 10391 10386 10380 10375 10371 10366 10363 10359 10354 10350 10347
10651 10648 10646 10643 10640 10636 10633 10629 10626 10622 10618 10614 10611 10607 10603 10599 10595 10592 10589 10586 10583 10580 10578 10575 10573 10570 10568 10565 10562 10559 10557 10554 10551 10549 10546 10544 10541 10537 10534 10531 10528 10525 10521 10517 10514 10511 10510 10506 10499 10494 10493 10491 10487 10484 10481 10476 10472 10468 10463 10458 10454 10450 10447 10443 10439 10436 10432 10428 10423 10418 10414 10412 10406 10400 10395 10391 10386 10381 10376 10371 10366 10361 10356 10352 10349 10344 10339 10335
10647 10644 10641 10638 10635 10632 10628 10624 10621 10617 10613 10609 10606 10602 10598 10594 10591 10588 10585 10582 10580 10577 10574 10572 10569 10566 10564 10561 10558 10555 10552 10549 10546 10543 10540 10538 10534 10531 10528 10525 10521 10519 10515 10511 10508 10504 10502 10499 10493 10488 10486 10484 10481 10477 10473 10469 10464 10460 10455 10450 10445 10441 10438 10434 10431 10426 10422 10417 10413 10408 10405 10403 10396 10389 10385 10381 10375 10371 10366 10361 10355 10351 10347 10343 10339 10334 10329 10324
10643 10640 10637 10634 10630 10627 10623 10619 10615 10612 10608 10604 10600 10597 10593 10590 10587 10584 10581 10579 10576 10574 10571 10568 10565 10562 10559 10556 10553 10550 10547 10544 10541 10538 10535 10531 10528 10525 10521 10518 10514 10511 10508 10505 10501 10498 10494 10491 10487 10482 10478 10476 10473 10469 10466 10462 10457 10451 10446 10442 10437 10433 10429 10426 10423 10418 10412 10407 10402 10398 10397 10395 10388 10381 10377 10372 10366 10361 10356 10351 10345 10340 10336 10333 10328 10323 10317 10311
10639 10636 10632 10629 10625 10622 10618 10614 10610 10606 10603 10599 10596 10592 10589 10586 10583 10580 10578 10575 10572 10570 10567 10564 10561 10558 10555 10552 10549 10545 10542 10539 10535 10532 10529 10525 10522 10518 10515 10511 10508 10504 10501 10497 10494 10490 10487 10483 10479 10475 10471 10468 10465 10461 10457 10453 10448 10443 10438 10434 10430 10426 10422 10418 10415 10410 10405 10399 10393 10389 10388 10385 10380 10374 10369 10363 10358 10352 10346 10340 10335 10329 10325 10322 10316 10310 10302 10296
10635 10631 10628 10624 10620 10617 10613 10609 10605 10601 10598 10594 10591 10588 10586 10583 10580 10577 10574 10571 10569 10566 10562 10559 10557 10554 10551 10547 10544 10541 10537 10533 10530 10526 10523 10519 10515 10512 10508 10505 10501 10498 10494 10490 10487 10483 10480 10476 10471 10466 10463 10461 10458 10453 10449 10444 10440 10436 10431 10426 10422 10419 10415 10411 10407 10403 10398 10392 10386 10381 10378 10375 10369 10364 10358 10353 10347 10342 10336 10329 10323 10317 10314 10310 10304 10296 10289 10283
10630 10627 10623 10619 10615 10612 10608 10604 10600 10597 10594 10590 10588 10585 10582 10579 10576 10573 10570 10567 10564 10561 10558 10555 10552 10549 10545 10542 10538 10535 10531 10528 10524 10520 10517 10513 10509 10506 10502 10498 10495 10491 10488 10484 10480 10476 10473 10469 10465 10460 10455 10452 10449 10445 10441 10436 10432 10429 10425 10419 10415 10412 10408 10405 10400 10394 10389 10384 10378 10374 10369 10364 10359 10354 10347 10341 10336 10329 10323 10317 10310 10305 10302 10297 10290 10282 10275 10268
10626 10622 10618 10614 10611 10607 10603 10599 10596 10593 10590 10587 10584 10581 10578 10575 10572 10569 10566 10563 10560 10557 10553 10550 10546 10543 10539 10536 10532 10529 10525 10522 10518 10515 10511 10507 10503 10499 10496 10492 10489 10485 10481 10477 10473 10469 10466 10462 10459 10455 10451 10447 10442 10438 10434 10429 10425 10422 10419 10414 10409 10405 10401 10398 10393 10387 10382 10376 10371 10367 10361 10355 10349 10343 10336 10330 10324 10317 10310 10302 10294 10287 10283 10278 10271 10262 10255 10247
10622 10618 10614 10610 10606 10602 10598 10595 10592 10590 10587 10584 10581 10578 10575 10571 10568 10565 10562 10559 10555 10552 10548 10544 10541 10537 10534 10530 10527 10523 10519 10516 10513 10509 10505 10501 10497 10494 10490 10486 10483 10479 10475 10471 10467 10463 10459 10455 10452 10449 10446 10442 10437 10432 10429 10425 10420 10416 10412 10407 10404 10399 10394 10389 10384 10379 10373 10367 10361 10355 10351 10345 10338 10330 10323 10316 10309 10302 10295 10286 10278 10270 10263 10257 10250 10242 10234 10226
10617 10613 10610 10606 10602 10598 10595 10592 10589 10586 10583 10580 10577 10574 10571 10567 10564 10561 10557 10554 10550 10547 10543 10539 10536 10532 10528 10525 10521 10518 10514 10510 10506 10503 10499 10495 10492 10488 10484 10481 10477 10473 10469 10465 10461 10457 10452 10449 10445 10443 10441 10437 10431 10426 10422 10418 10414 10409 10404 10400 10397 10392 10387 10381 10375 10369 10364 10358 10351 10344 10338 10333 10327 10319 10311 10304 10297 10289 10281 10273 10266 10259 10252 10243 10236 10228 10220 10211
10612 10608 10605 10602 10599 10596 10592 10589 10586 10582 10579 10576 10573 10569 10566 10563 10560 10556 10553 10549 10546 10542 10538 10534 10531 10527 10523 10519 10516 10512 10508 10504 10500 10497 10493 10489 10486 10482 10479 10475 10471 10468 10464 10460 10455 10451 10447 10443 10439 10436 10434 10430 10425 10420 10416 10411 10406 10401 10396 10392 10389 10384 10379 10373 10367 10360 10353 10347 10341 10334 10327 10321 10314 10307 10299 10292 10285 10278 10270 10262 10254 10247 10240 10230 10221 10214 10206 10196
10608 10604 10601 10598 10595 10592 10589 10586 10582 10579 10575 10572 10569 10565 10562 10559 10555 10552 10548 10545 10541 10537 10533 10530 10526 10522 10518 10515 10511 10507 10503 10499 10495 10491 10487 10484 10480 10476 10473 10470 10466 10462 10459 10454 10450 10445 10441 10437 10432 10429 10426 10422 10417 10413 10408 10403 10399 10393 10388 10384 10380 10375 10369 10364 10357 10350 10342 10335 10329 10323 10317 10310 10302 10294 10287 10279 10271 10263 10255 10246 10237 10228 10221 10212 10202 10194 10186 10177
10604 10601 10598 10594 10591 10588 10585 10581 10578 10575 10572 10568 10565 10561 10558 10554 10551 10547 10543 10540 10536 10533 10529 10525 10521 10518 10514 10510 10506 10502 10498 10494 10490 10486 10482 10479 10475 10471 10468 10464 10461 10457 10453 10449 10444 10440 10436 10431 10426 10422 10419 10415 10410 10405 10401 10396 10391 10385 10380 10375 10369 10364 10359 10354 10347 10340 10332 10323 10316 10310 10304 10296 10287 10278 10270 10261 10252 10244 10235 10226 10217 10208 10198 10191 10183 10175 10166 10158
10601 10598 10595 10591 10588 10584 10581 10577 10574 10571 10568 10564 10561 10557 10554 10550 10546 10542 10539 10535 10531 10528 10524 10521 10517 10513 10510 10506 10502 10498 10494 10490 10486 10482 10479 10475 10471 10467 10463 10459 10456 10452 10448 10444 10439 10435 10431 10426 10420 10416 10413 10409 10404 10398 10393 10388 10382 10376 10370 10364 10358 10353 10348 10343 10337 10329 10320 10311 10304 10298 10290 10281 10272 10263 10254 10244 10233 10225 10217 10207 10201 10193 10181 10171 10165 10157 10149 10142
10597 10594 10591 10588 10585 10581 10578 10574 10571 10567 10564 10560 10557 10553 10549 10545 10541 10538 10534 10531 10527 10523 10520 10516 10513 10509 10505 10502 10498 10493 10490 10486 10482 10478 10475 10471 10467 10463 10459 10455 10451 10448 10444 10439 10434 10429 10426 10421 10415 10409 10405 10401 10397 10391 10385 10379 10373 10366 10360 10353 10347 10341 10336 10331 10324 10316 10306 10297 10290 10283 10275 10267 10258 10250 10242 10232 10220 10210 10200 10190 10184 10178 10168 10158 10149 10140 10133 10126